Preview of NWS' New Version of Forecast
This preview is not operational and should not be used for support decisions.

Regional Weather Roundup (RWR)

Issued by National Weather Service (NWS)

                            
000
ASUS45 KCYS 200810
RWRWY 

WYOMING REGIONAL WEATHER ROUNDUP
NATIONAL WEATHER SERVICE CHEYENNE WY
100 AM MST WED FEB 20 2019

NOTE:  "FAIR" INDICATES FEW OR NO CLOUDS BELOW 12,000 FEET
WITH NO SIGNIFICANT WEATHER AND/OR OBSTRUCTIONS TO VISIBILITY.

WYZ001-200900-
YELLOWSTONE NATIONAL PARK
  
CITY           SKY/WX    TMP DP  RH WIND       PRES   REMARKS
LK YELLOWSTONE   N/A     -5  -9  83 CALM      29.57F                  
W YELLOWSTONE  NOT AVBL                                               

$$
WYZ002>013-054>058-071-098>099-200900-
NORTHERN WYOMING
  
CITY           SKY/WX    TMP DP  RH WIND       PRES   REMARKS
JACKSON        CLOUDY     1  -3  83 N9        29.65F FOG     WCI -14  
CODY           FAIR      14  -5  42 SW5       29.60F WCI   6          
GREYBULL       FAIR      -1  -4  87 S3        29.68F                  
WORLAND        FAIR       2  -1  88 CALM      29.67F                  
SHERIDAN       FAIR      -3  -9  75 CALM      29.65F                  
BUFFALO        FAIR       5  -3  69 W5        29.57F WCI  -4          
GILLETTE       FAIR       3  -2  79 CALM      29.60F                  
HULETT         LGT SNOW  12   9  85 MISG      29.62F                  
NEWCASTLE        N/A      3   1  92 NW3       29.63                   

$$
WYZ014>020-022>026-101>103-200900-
CENTRAL WYOMING
  
CITY           SKY/WX    TMP DP  RH WIND       PRES   REMARKS
BIG PINEY      CLOUDY   -17 -21  82 N5        29.63F WCI -30          
PINEDALE       FAIR     -11 -17  77 NW3       29.62                   
DUBOIS         FAIR      -4  -9  77 W14       29.53  WCI -24          
LANDER         FAIR       9  -7  48 SW6       29.60F WCI  -1          
RIVERTON       FAIR      11  -5  48 W21       29.59F WCI  -8          
CASPER         CLOUDY    11   3  70 SW9       29.59F WCI  -2          
DOUGLAS        FAIR       5   1  83 W3        29.59F                  

$$
WYZ021-027>030-104>119-200900-
SOUTHERN WYOMING
  
CITY           SKY/WX    TMP DP  RH WIND       PRES   REMARKS
EVANSTON       MOCLDY     1  -4  79 SW14      29.65F HAZE    WCI -17  
KEMMERER       FAIR       3   0  85 SW9       29.62  WCI -11          
FORT BRIDGER   MOSUNNY    7   1  78 NW20      29.67F WCI -13          
ROCK SPRINGS   FAIR       3  -2  79 W18       29.63F WCI -17          
DIXON          LGT SNOW   8   3  82 SW3       29.71F                  
RAWLINS        CLOUDY     3  -2  79 SW20G26   29.60F WCI -18          
SARATOGA       CLOUDY     5   1  85 SW8       29.63F WCI  -8          
LARAMIE        FAIR       3  -8  60 VRB3      29.53F                  
CHEYENNE       FAIR       6  -2  69 W12       29.55F WCI  -9          
TORRINGTON     CLOUDY     5   4  95 CALM      29.64F                  
PINE BLUFFS    FAIR       3   0  85 W5        29.62F WCI  -6          

$$